TimeEDT,TemperatureF,Dew PointF,Humidity,Sea Level PressureIn,VisibilityMPH,Wind Direction,Wind SpeedMPH,Gust SpeedMPH,PrecipitationIn,Events,Conditions,WindDirDegrees,DateUTC
12:54 AM,36.0,25.0,64,30.10,10.0,NNW,24.2,34.5,N/A,,Mostly Cloudy,340,2008-10-28 04:54:00
1:54 AM,36.0,26.1,67,30.10,10.0,NNW,18.4,26.5,N/A,,Overcast,340,2008-10-28 05:54:00
2:54 AM,35.1,27.0,72,30.09,10.0,North,11.5,20.7,N/A,,Mostly Cloudy,350,2008-10-28 06:54:00
3:54 AM,36.0,26.1,67,30.10,10.0,NNW,11.5,20.7,N/A,,Overcast,340,2008-10-28 07:54:00
4:54 AM,36.0,26.1,67,30.10,10.0,NNW,16.1,26.5,N/A,,Overcast,340,2008-10-28 08:54:00
5:54 AM,36.0,26.1,67,30.11,10.0,NNW,12.7,-,N/A,,Overcast,330,2008-10-28 09:54:00
6:54 AM,36.0,26.1,67,30.12,10.0,North,12.7,20.7,N/A,,Overcast,350,2008-10-28 10:54:00
7:54 AM,35.1,26.1,70,30.14,10.0,NNW,16.1,21.9,0.00,,Overcast,330,2008-10-28 11:54:00
8:54 AM,35.1,27.0,72,30.16,10.0,NNW,16.1,20.7,N/A,,Mostly Cloudy,340,2008-10-28 12:54:00
9:27 AM,35.6,28.4,75,30.15,2.5,NNW,23.0,33.4,0.00,Snow,Light Snow,340,2008-10-28 13:27:00
9:35 AM,33.8,30.2,87,30.16,1.8,NNW,13.8,29.9,0.00,Snow,Light Snow,340,2008-10-28 13:35:00
9:37 AM,33.8,30.2,87,30.16,2.0,North,13.8,27.6,0.00,Snow,Light Snow,350,2008-10-28 13:37:00
9:44 AM,33.8,30.2,87,30.17,1.2,North,12.7,20.7,0.00,Snow,Light Snow,350,2008-10-28 13:44:00
9:52 AM,33.8,30.2,87,30.17,1.0,North,16.1,23.0,0.00,Snow,Light Snow,350,2008-10-28 13:52:00
9:54 AM,33.1,30.0,89,30.20,0.8,NNW,13.8,23.0,0.00,Snow,Light Snow,340,2008-10-28 13:54:00
10:13 AM,33.8,30.2,87,30.17,1.2,NNW,19.6,29.9,0.00,Snow,Light Snow,330,2008-10-28 14:13:00
10:16 AM,33.8,30.2,87,30.18,2.0,NNW,19.6,29.9,0.00,Snow,Light Snow,340,2008-10-28 14:16:00
10:22 AM,35.6,30.2,81,30.18,3.0,NW,15.0,25.3,0.00,Snow,Light Snow,320,2008-10-28 14:22:00
10:29 AM,33.8,30.2,87,30.18,5.0,NNW,17.3,28.8,0.00,Snow,Light Snow,330,2008-10-28 14:29:00
10:43 AM,35.6,30.2,81,30.18,10.0,NNW,13.8,23.0,0.00,,Overcast,330,2008-10-28 14:43:00
10:54 AM,36.0,28.9,76,30.20,10.0,NNW,21.9,29.9,0.00,,Mostly Cloudy,330,2008-10-28 14:54:00
11:01 AM,37.4,28.4,70,30.18,10.0,NNW,23.0,35.7,N/A,,Mostly Cloudy,340,2008-10-28 15:01:00
11:54 AM,37.0,25.0,62,30.20,10.0,NNW,20.7,31.1,N/A,,Overcast,340,2008-10-28 15:54:00
12:54 PM,41.0,23.0,49,30.17,10.0,NW,21.9,35.7,N/A,,Mostly Cloudy,310,2008-10-28 16:54:00
1:54 PM,43.0,23.0,45,30.16,10.0,NNW,28.8,35.7,N/A,,Scattered Clouds,330,2008-10-28 17:54:00
2:54 PM,42.1,21.9,45,30.15,10.0,NNW,24.2,35.7,N/A,,Mostly Cloudy,330,2008-10-28 18:54:00
3:54 PM,42.1,21.0,43,30.16,10.0,NNW,28.8,39.1,N/A,,Partly Cloudy,330,2008-10-28 19:54:00
4:54 PM,41.0,21.0,45,30.17,10.0,NW,19.6,32.2,N/A,,Clear,320,2008-10-28 20:54:00
5:54 PM,39.0,19.9,46,30.17,10.0,NNW,20.7,33.4,N/A,,Clear,330,2008-10-28 21:54:00
6:54 PM,37.9,21.0,51,30.19,10.0,NNW,23.0,31.1,N/A,,Clear,330,2008-10-28 22:54:00
7:54 PM,37.0,21.9,54,30.20,10.0,NNW,17.3,27.6,N/A,,Clear,330,2008-10-28 23:54:00
8:54 PM,36.0,21.9,57,30.19,10.0,NNW,12.7,19.6,N/A,,Clear,330,2008-10-29 00:54:00
9:54 PM,36.0,21.9,57,30.22,10.0,NNW,11.5,-,N/A,,Clear,330,2008-10-29 01:54:00
10:54 PM,36.0,21.9,57,30.20,10.0,NNW,15.0,18.4,N/A,,Clear,330,2008-10-29 02:54:00
11:54 PM,35.1,23.0,61,30.20,10.0,NNW,11.5,-,N/A,,Clear,330,2008-10-29 03:54:00